timestamp,surface_pressure_avg,surface_temp_avg,battery_voltage,lat,long
2024-02-06 00:09:00+00:00,258.6031,1.34,11.22,47.84626,-54.09684
2024-02-06 00:19:00+00:00,250.9631,1.36,11.22,47.84626,-54.09684
2024-02-06 00:29:00+00:00,251.0364,1.38,11.22,47.84626,-54.09684
2024-02-06 00:39:00+00:00,251.9314,1.4,11.22,47.84626,-54.09684
2024-02-06 00:49:00+00:00,249.8614,1.39,11.22,47.84626,-54.09684
2024-02-06 00:59:00+00:00,246.2997,1.39,11.22,47.84626,-54.09684
2024-02-06 01:09:00+00:00,244.3164,1.4,11.22,47.84626,-54.09684
2024-02-06 01:19:00+00:00,241.4981,1.4,11.22,47.84626,-54.09684
2024-02-06 01:29:00+00:00,240.3498,1.39,11.22,47.84626,-54.09684
2024-02-06 01:39:00+00:00,240.0614,1.39,11.22,47.84626,-54.09684
2024-02-06 01:49:00+00:00,239.0697,1.39,11.22,47.84626,-54.09684
2024-02-06 01:59:00+00:00,240.0865,1.4,11.22,47.84626,-54.09684
2024-02-06 02:09:00+00:00,243.1847,1.39,11.22,47.84626,-54.09684
2024-02-06 02:19:00+00:00,242.0481,1.3,11.22,47.84626,-54.09684
2024-02-06 02:29:00+00:00,239.7981,1.31,11.22,47.84626,-54.09684
2024-02-06 02:39:00+00:00,242.5314,1.3,11.22,47.84626,-54.09684
2024-02-06 02:49:00+00:00,246.0448,1.3,11.22,47.84626,-54.09684
2024-02-06 02:59:00+00:00,244.4814,1.3,11.22,47.84626,-54.09684
2024-02-06 03:09:00+00:00,244.2097,1.3,11.22,47.84626,-54.09684
2024-02-06 03:19:00+00:00,250.423,1.3,11.22,47.84626,-54.09684
2024-02-06 03:29:00+00:00,254.8948,1.3,11.22,47.84626,-54.09684
2024-02-06 03:39:00+00:00,257.328,1.3,11.22,47.84626,-54.09684
2024-02-06 03:49:00+00:00,259.2731,1.3,11.22,47.84626,-54.09684
2024-02-06 03:59:00+00:00,265.3731,1.3,11.22,47.84626,-54.09684
2024-02-06 04:09:00+00:00,269.6248,1.3,11.22,47.84626,-54.09684
2024-02-06 04:19:00+00:00,272.153,1.3,11.22,47.84626,-54.09684
2024-02-06 04:29:00+00:00,274.4763,1.3,11.22,47.84626,-54.09684
2024-02-06 04:39:00+00:00,281.7264,1.3,11.22,47.84626,-54.09684
2024-02-06 04:49:00+00:00,286.6597,1.3,11.22,47.84626,-54.09684
2024-02-06 04:59:00+00:00,287.3647,1.3,11.22,47.84626,-54.09684
2024-02-06 05:09:00+00:00,291.0547,1.31,11.22,47.84626,-54.09684
2024-02-06 05:19:00+00:00,300.8914,1.34,11.22,47.84626,-54.09684
2024-02-06 05:29:00+00:00,309.1979,1.3,11.22,47.84626,-54.09684
2024-02-06 05:39:00+00:00,312.7845,1.3,11.22,47.84626,-54.09684
2024-02-06 05:49:00+00:00,317.0612,1.36,11.22,47.84626,-54.09684
2024-02-06 05:59:00+00:00,321.993,1.35,11.22,47.84626,-54.09684
2024-02-06 06:09:00+00:00,327.5164,1.32,11.22,47.84626,-54.09684
2024-02-06 06:19:01+00:00,328.6362,1.35,11.22,47.84626,-54.09684
2024-02-06 06:29:01+00:00,331.1163,1.36,11.22,47.84626,-54.09684
2024-02-06 06:39:01+00:00,338.1696,1.35,11.22,47.84626,-54.09684
2024-02-06 06:49:01+00:00,344.4446,1.3,11.22,47.84626,-54.09684
2024-02-06 06:59:01+00:00,344.6046,1.3,11.22,47.84626,-54.09684
2024-02-06 07:09:01+00:00,349.44300000000015,1.32,11.22,47.84626,-54.09684
2024-02-06 07:19:00+00:00,356.6946,1.35,11.22,47.84626,-54.09684
2024-02-06 07:29:00+00:00,356.2596,1.3,11.22,47.84626,-54.09684
2024-02-06 07:39:00+00:00,356.7813,1.32,11.22,47.84626,-54.09684
2024-02-06 07:49:00+00:00,363.1946,1.35,11.22,47.84626,-54.09684
2024-02-06 07:59:00+00:00,364.8746,1.3,11.22,47.84626,-54.09684
2024-02-06 08:09:00+00:00,362.1195,1.3,11.22,47.84626,-54.09684
2024-02-06 08:19:00+00:00,363.9596,1.31,11.22,47.84626,-54.09684
2024-02-06 08:29:00+00:00,366.7696,1.3,11.22,47.84626,-54.09684
2024-02-06 08:39:00+00:00,365.2313,1.3,11.22,47.84626,-54.09684
2024-02-06 08:49:00+00:00,362.1647,1.3,11.22,47.84626,-54.09684
2024-02-06 08:59:00+00:00,363.1946,1.3,11.22,47.84626,-54.09684
2024-02-06 09:09:00+00:00,362.588,1.3,11.22,47.84626,-54.09684
2024-02-06 09:19:00+00:00,357.1096,1.3,11.14,47.84626,-54.09684
2024-02-06 09:29:00+00:00,354.2813,1.3,11.14,47.84626,-54.09684
2024-02-06 09:39:00+00:00,351.9129,1.3,11.14,47.84626,-54.09684
2024-02-06 09:49:00+00:00,347.4213,1.3,11.14,47.84626,-54.09684
2024-02-06 09:59:00+00:00,342.468,1.3,11.14,47.84626,-54.09684
2024-02-06 10:09:00+00:00,342.2813,1.3,11.14,47.84626,-54.09684
2024-02-06 10:19:00+00:00,339.5129,1.27,11.14,47.84626,-54.09684
2024-02-06 10:29:00+00:00,333.5363,1.2,11.14,47.84626,-54.09684
2024-02-06 10:39:00+00:00,328.48800000000006,1.26,11.14,47.84626,-54.09684
2024-02-06 10:49:00+00:00,324.5296,1.29,11.14,47.84626,-54.09684
2024-02-06 10:59:00+00:00,318.4896,1.24,11.14,47.84626,-54.09684
2024-02-06 11:09:00+00:00,314.2646,1.27,11.14,47.84626,-54.09684
2024-02-06 11:19:00+00:00,311.2614,1.2,11.14,47.84626,-54.09684
2024-02-06 11:29:00+00:00,307.5463,1.2,11.14,47.84626,-54.09684
2024-02-06 11:39:00+00:00,303.9264,1.23,11.14,47.84626,-54.09684
2024-02-06 11:49:00+00:00,300.8281,1.26,11.14,47.84626,-54.09684
2024-02-06 11:59:00+00:00,296.6263,1.3,11.14,47.84626,-54.09684
2024-02-06 12:09:00+00:00,292.4764,1.3,11.14,47.84626,-54.09684
2024-02-06 12:19:00+00:00,289.7446,1.3,11.14,47.84626,-54.09684
2024-02-06 12:29:00+00:00,285.8147,1.3,11.14,47.84626,-54.09684
2024-02-06 12:39:00+00:00,279.528,1.3,11.14,47.84626,-54.09684
2024-02-06 12:49:00+00:00,275.5431,1.32,11.14,47.84626,-54.09684
2024-02-06 12:59:00+00:00,272.3314,1.37,11.14,47.84626,-54.09684
2024-02-06 13:09:00+00:00,267.1964,1.39,11.14,47.84626,-54.09684
2024-02-06 13:19:00+00:00,264.1631,1.38,11.14,47.84626,-54.09684
2024-02-06 13:29:00+00:00,263.0331,1.4,11.14,47.84626,-54.09684
2024-02-06 13:39:00+00:00,259.5748,1.4,11.14,47.84626,-54.09684
2024-02-06 13:49:00+00:00,256.2681,1.4,11.14,47.84626,-54.09684
2024-02-06 13:59:00+00:00,254.9598,1.4,11.14,47.84626,-54.09684
2024-02-06 14:09:00+00:00,255.2981,1.4,11.14,47.84626,-54.09684
2024-02-06 14:19:00+00:00,255.5681,1.4,11.22,47.84626,-54.09684
2024-02-06 14:29:00+00:00,255.4647,1.4,11.22,47.84626,-54.09684
2024-02-06 14:39:00+00:00,254.4081,1.42,11.22,47.84626,-54.09684
2024-02-06 14:49:00+00:00,253.2214,1.46,11.22,47.84626,-54.09684
2024-02-06 14:59:00+00:00,252.2831,1.48,11.22,47.84626,-54.09684
2024-02-06 15:09:00+00:00,252.0097,1.49,11.22,47.84626,-54.09684
2024-02-06 15:19:00+00:00,251.2831,1.48,11.14,47.84626,-54.09684
2024-02-06 15:29:00+00:00,250.9431,1.49,11.14,47.84626,-54.09684
2024-02-06 15:39:00+00:00,252.2897,1.5,11.14,47.84626,-54.09684
2024-02-06 15:49:00+00:00,253.5098,1.5,11.14,47.84626,-54.09684
2024-02-06 15:59:00+00:00,254.5997,1.5,11.14,47.84626,-54.09684
2024-02-06 16:09:00+00:00,255.3698,1.5,11.14,47.84626,-54.09684
2024-02-06 16:19:00+00:00,254.7198,1.5,11.14,47.84626,-54.09684
2024-02-06 16:29:00+00:00,253.0881,1.5,11.14,47.84626,-54.09684
2024-02-06 16:39:00+00:00,253.8798,1.5,11.14,47.84626,-54.09684
2024-02-06 16:49:00+00:00,256.1147,1.5,11.14,47.84626,-54.09684
2024-02-06 16:59:00+00:00,256.9847,1.5,11.14,47.84626,-54.09684
2024-02-06 17:09:00+00:00,256.5181,1.5,11.14,47.84626,-54.09684
2024-02-06 17:19:00+00:00,258.4914,1.5,11.14,47.84626,-54.09684
2024-02-06 17:29:00+00:00,262.2814,1.5,11.14,47.84626,-54.09684
2024-02-06 17:39:00+00:00,264.0715,1.5,11.14,47.84626,-54.09684
2024-02-06 17:49:00+00:00,268.3015,1.5,11.14,47.84626,-54.09684
2024-02-06 17:59:00+00:00,273.9264,1.5,11.14,47.84626,-54.09684
2024-02-06 18:09:00+00:00,277.598,1.5,11.14,47.84626,-54.09684
2024-02-06 18:19:01+00:00,280.1514,1.5,11.14,47.84626,-54.09684
2024-02-06 18:29:01+00:00,285.908,1.5,11.14,47.84626,-54.09684
2024-02-06 18:39:01+00:00,291.7463,1.5,11.14,47.84626,-54.09684
2024-02-06 18:49:01+00:00,294.1331,1.5,11.14,47.84626,-54.09684
2024-02-06 18:59:01+00:00,297.258,1.5,11.14,47.84626,-54.09684
2024-02-06 19:09:01+00:00,302.8113,1.5,11.14,47.84626,-54.09684
2024-02-06 19:19:00+00:00,307.0764,1.5,11.14,47.84626,-54.09684
2024-02-06 19:29:00+00:00,308.6447,1.5,11.14,47.84626,-54.09684
2024-02-06 19:39:00+00:00,310.9597,1.5,11.14,47.84626,-54.09684
2024-02-06 19:49:00+00:00,316.8164,1.5,11.14,47.84626,-54.09684
2024-02-06 19:59:00+00:00,319.2047,1.5,11.14,47.84626,-54.09684
2024-02-06 20:09:00+00:00,319.4697,1.5,11.14,47.84626,-54.09684
2024-02-06 20:19:00+00:00,321.2596,1.44,11.14,47.84626,-54.09684
2024-02-06 20:29:00+00:00,325.533,1.4,11.14,47.84626,-54.09684
2024-02-06 20:39:00+00:00,324.4913,1.42,11.14,47.84626,-54.09684
2024-02-06 20:49:00+00:00,326.1013,1.4,11.14,47.84626,-54.09684
2024-02-06 20:59:00+00:00,331.5297,1.4,11.14,47.84626,-54.09684
2024-02-06 21:09:00+00:00,332.3297,1.4,11.14,47.84626,-54.09684
2024-02-06 21:19:01+00:00,331.9996,1.4,11.14,47.84626,-54.09684
2024-02-06 21:29:01+00:00,334.3813,1.4,11.14,47.84626,-54.09684
2024-02-06 21:39:01+00:00,336.7396,1.4,11.14,47.84626,-54.09684
2024-02-06 21:49:01+00:00,333.8414,1.4,11.14,47.84626,-54.09684
2024-02-06 21:59:01+00:00,330.9946,1.4,11.14,47.84626,-54.09684
2024-02-06 22:09:01+00:00,330.80300000000005,1.4,11.14,47.84626,-54.09684
2024-02-06 22:19:01+00:00,327.2196,1.4,11.14,47.84626,-54.09684
2024-02-06 22:29:01+00:00,321.7213,1.4,11.14,47.84626,-54.09684
2024-02-06 22:39:01+00:00,319.358,1.39,11.14,47.84626,-54.09684
2024-02-06 22:49:01+00:00,319.0013,1.37,11.14,47.84626,-54.09684
2024-02-06 22:59:01+00:00,315.7413,1.35,11.14,47.84626,-54.09684
2024-02-06 23:09:01+00:00,310.7997,1.33,11.14,47.84626,-54.09684
2024-02-06 23:19:01+00:00,305.0863,1.33,11.14,47.84626,-54.09684
2024-02-06 23:29:01+00:00,299.9013,1.31,11.14,47.84626,-54.09684
2024-02-06 23:39:01+00:00,293.6814,1.32,11.14,47.84626,-54.09684
2024-02-06 23:49:01+00:00,285.9747,1.3,11.14,47.84626,-54.09684
2024-02-06 23:59:01+00:00,281.1581,1.3,11.14,47.84626,-54.09684
